EW4565 Weather Reports


time (UTC)temp
C
wind
direction
speed
KPH
gust
KPH
rain 1hr
cm
rain 24hr
cm
rain mn
cm
humidity
%
barometer
mb
20260508044105 16 279 0.0 3.2 0.00 0.00 0.00 51 1011.3
20260508043603 16 278 0.0 3.2 0.00 0.00 0.00 52 1011.3
20260508043105 16 278 0.0 3.2 0.00 0.00 0.00 54 1011.2
20260508042607 16 278 0.0 1.6 0.00 0.00 0.00 55 1011.3
20260508042104 16 278 0.0 1.6 0.00 0.00 0.00 56 1011.3
20260508041605 16 278 0.0 1.6 0.00 0.00 0.00 55 1011.2
20260508041103 16 278 0.0 0.0 0.00 0.00 0.00 56 1011.1
20260508040602 16 278 0.0 3.2 0.00 0.00 0.00 54 1011.1
20260508040356 16 278 0.0 4.8 0.00 0.00 0.00 54 1010.9
20260508035604 17 278 0.0 4.8 0.00 0.00 0.00 53 1010.9
20260508035355 17 276 0.0 3.2 0.00 0.00 0.00 53 1010.9
20260508034606 17 276 0.0 3.2 0.00 0.00 0.00 53 1010.8
20260508034106 17 276 0.0 0.0 0.00 0.00 0.00 50 1010.6
20260508033603 17 276 0.0 0.0 0.00 0.00 0.00 49 1010.5
20260508033105 18 276 0.0 0.0 0.00 0.00 0.00 49 1010.4
20260508032604 18 276 0.0 0.0 0.00 0.00 0.00 49 1010.4
20260508032103 18 276 0.0 0.0 0.00 0.00 0.00 49 1010.4
20260508031603 18 276 0.0 1.6 0.00 0.00 0.00 49 1010.3
20260508031104 19 276 0.0 1.6 0.00 0.00 0.00 48 1010.3
20260508030606 19 276 0.0 1.6 0.00 0.00 0.00 47 1010.2
20260508030409 20 276 0.0 3.2 0.00 0.00 0.00 46 1010.3
20260508025603 20 276 0.0 3.2 0.00 0.00 0.00 45 1010.2
20260508025105 21 276 0.0 1.6 0.00 0.00 0.00 45 1010.2
20260508024605 21 276 0.0 3.2 0.00 0.00 0.00 43 1010.1
20260508024105 22 276 0.0 4.8 0.00 0.00 0.00 42 1010.0
20260508023605 22 276 0.0 4.8 0.00 0.00 0.00 38 1010.0
20260508023105 22 278 0.0 0.0 0.00 0.00 0.00 37 1009.9
20260508022604 23 278 0.0 0.0 0.00 0.00 0.00 38 1009.8
20260508022104 23 278 0.0 1.6 0.00 0.00 0.00 36 1009.8
20260508021724 23 278 0.0 1.6 0.00 0.00 0.00 36 1009.8
20260508021658 23 278 0.0 1.6 0.00 0.00 0.00 36 1009.8
20260508020605 23 278 0.0 1.6 0.00 0.00 0.00 36 1009.8
20260508020105 23 278 0.0 3.2 0.00 0.00 0.00 34 1009.9
20260508015606 23 278 0.0 3.2 0.00 0.00 0.00 33 1009.9
20260508015105 24 278 0.0 4.8 0.00 0.00 0.00 33 1009.9
20260508014604 24 278 0.0 4.8 0.00 0.00 0.00 33 1009.9
20260508014101 24 277 0.0 1.6 0.00 0.00 0.00 32 1009.9
20260508013601 24 278 0.0 3.2 0.00 0.00 0.00 33 1009.9
20260508013102 24 278 0.0 3.2 0.00 0.00 0.00 34 1009.9
20260508012601 24 278 1.6 4.8 0.00 0.00 0.00 34 1009.9
20260508012102 24 278 1.6 4.8 0.00 0.00 0.00 33 1010.0
20260508011905 24 277 1.6 4.8 0.00 0.00 0.00 33 1010.0
20260508011102 24 275 0.0 3.2 0.00 0.00 0.00 34 1009.9
20260508010906 24 276 1.6 4.8 0.00 0.00 0.00 33 1010.0
20260508010239 24 276 1.6 6.4 0.00 0.00 0.00 33 1010.0
20260508010203 24 275 1.6 6.4 0.00 0.00 0.00 32 1009.9
20260508005402 25 259 1.6 6.4 0.00 0.00 0.00 37 1010.1
20260508004607 25 260 0.0 4.8 0.00 0.00 0.00 37 1010.2
20260508004105 24 259 1.6 6.4 0.00 0.00 0.00 37 1010.2
20260508003607 24 259 1.6 6.4 0.00 0.00 0.00 35 1010.2
20260508003103 24 260 0.0 4.8 0.00 0.00 0.00 36 1010.1
20260508002603 24 260 1.6 9.7 0.00 0.00 0.00 35 1010.2
20260508002105 24 260 1.6 9.7 0.00 0.00 0.00 34 1010.2
20260508001909 24 260 1.6 8.0 0.00 0.00 0.00 34 1010.2
20260508001406 24 233 1.6 8.0 0.00 0.00 0.00 35 1010.2
20260508000602 24 237 1.6 8.0 0.00 0.00 0.00 35 1010.2
20260508000103 24 189 1.6 6.4 0.00 0.00 0.00 37 1010.1
20260507235602 24 259 1.6 4.8 0.00 0.00 0.00 37 1010.1
20260507235102 24 259 1.6 6.4 0.00 0.00 0.00 38 1010.2
20260507234603 24 260 1.6 9.7 0.00 0.00 0.00 36 1010.1
20260507234102 24 260 1.6 9.7 0.00 0.00 0.00 39 1010.1
20260507233602 24 249 1.6 8.0 0.00 0.00 0.00 39 1010.1
20260507233101 24 237 1.6 6.4 0.00 0.00 0.00 38 1010.1
20260507232601 24 245 1.6 6.4 0.00 0.00 0.00 40 1010.0
20260507232103 24 245 1.6 6.4 0.00 0.00 0.00 40 1010.1
20260507231605 25 237 1.6 6.4 0.00 0.00 0.00 41 1010.2
20260507231104 24 228 1.6 6.4 0.00 0.00 0.00 40 1010.1
20260507230856 24 224 1.6 6.4 0.00 0.00 0.00 42 1010.2
20260507230104 24 222 1.6 6.4 0.00 0.00 0.00 41 1010.2
20260507225604 24 204 1.6 6.4 0.00 0.00 0.00 42 1010.3
20260507225104 24 274 1.6 6.4 0.00 0.00 0.00 44 1010.4
20260507224606 24 256 0.0 3.2 0.00 0.00 0.00 42 1010.5
20260507224106 23 258 0.0 9.7 0.00 0.00 0.00 42 1010.6
20260507223604 23 258 1.6 9.7 0.00 0.00 0.00 43 1010.6
20260507223104 23 268 1.6 9.7 0.00 0.00 0.00 44 1010.7
20260507222607 23 270 1.6 9.7 0.00 0.00 0.00 44 1010.8
20260507222411 23 261 1.6 6.4 0.00 0.00 0.00 43 1010.8
20260507221603 23 255 1.6 8.0 0.00 0.00 0.00 44 1010.9
20260507221105 23 276 1.6 8.0 0.00 0.00 0.00 43 1011.1
20260507221013 23 268 1.6 9.7 0.00 0.00 0.00 44 1011.2
20260507221009 23 197 1.6 6.4 0.00 0.00 0.00 44 1011.1
20260507215900 22 278 1.6 11.3 0.00 0.00 0.00 46 1011.2
20260507215404 22 281 1.6 11.3 0.00 0.00 0.00 44 1011.2
20260507214601 22 253 1.6 11.3 0.00 0.00 0.00 45 1011.2
20260507214104 23 231 3.2 11.3 0.00 0.00 0.00 44 1011.3
20260507213602 23 280 1.6 11.3 0.00 0.00 0.00 46 1011.3
20260507213102 22 289 1.6 11.3 0.00 0.00 0.00 46 1011.4
20260507212601 22 294 1.6 11.3 0.00 0.00 0.00 47 1011.4
20260507212101 22 268 3.2 9.7 0.00 0.00 0.00 47 1011.5
20260507211603 22 270 3.2 9.7 0.00 0.00 0.00 48 1011.6
20260507211101 22 271 3.2 9.7 0.00 0.00 0.00 49 1011.6
20260507210901 22 258 1.6 9.7 0.00 0.00 0.00 48 1011.7
20260507205900 22 262 0.0 3.2 0.00 0.00 0.00 50 1011.6
20260507205102 21 262 1.6 6.4 0.00 0.00 0.00 51 1011.8
20260507204603 21 262 3.2 9.7 0.00 0.00 0.00 51 1011.9
20260507204101 21 268 1.6 9.7 0.00 0.00 0.00 51 1011.9
20260507203602 21 253 1.6 6.4 0.00 0.00 0.00 54 1011.9
20260507203101 21 247 1.6 6.4 0.00 0.00 0.00 53 1011.9
20260507202703 21 249 1.6 6.4 0.00 0.00 0.00 52 1012.0
20260507202642 21 253 1.6 6.4 0.00 0.00 0.00 52 1012.0
20260507201602 21 248 1.6 9.7 0.00 0.00 0.00 51 1012.0
20260507201103 21 253 3.2 9.7 0.00 0.00 0.00 52 1012.0
20260507200601 21 248 1.6 6.4 0.00 0.00 0.00 52 1012.0
20260507200101 21 261 1.6 8.0 0.00 0.00 0.00 53 1012.1
20260507195601 21 166 1.6 8.0 0.00 0.00 0.00 53 1012.0
20260507195101 21 164 1.6 6.4 0.00 0.00 0.00 55 1012.1
20260507194604 20 165 1.6 6.4 0.00 0.00 0.00 54 1012.1
20260507194118 20 164 0.0 6.4 0.00 0.00 0.00 54 1012.0
20260507193607 20 163 1.6 9.7 0.00 0.00 0.00 52 1012.1
20260507193106 20 164 1.6 9.7 0.00 0.00 0.00 52 1012.1
20260507192604 20 179 1.6 8.0 0.00 0.00 0.00 54 1012.1
20260507192103 20 332 1.6 9.7 0.00 0.00 0.00 55 1012.2
20260507191559 20 270 1.6 9.7 0.00 0.00 0.00 54 1012.2
20260507191101 20 243 1.6 8.0 0.00 0.00 0.00 54 1012.3
20260507190559 20 145 1.6 8.0 0.00 0.00 0.00 53 1012.3
20260507190100 19 85 1.6 6.4 0.00 0.00 0.00 54 1012.4
20260507185600 19 137 1.6 6.4 0.00 0.00 0.00 55 1012.5
20260507185059 19 212 1.6 6.4 0.00 0.00 0.00 56 1012.5
20260507184558 19 213 1.6 6.4 0.00 0.00 0.00 55 1012.6
20260507184101 18 238 1.6 4.8 0.00 0.00 0.00 56 1012.8
20260507183558 18 238 1.6 4.8 0.00 0.00 0.00 56 1012.8
20260507183056 18 233 1.6 6.4 0.00 0.00 0.00 55 1012.9
20260507182557 18 234 1.6 6.4 0.00 0.00 0.00 54 1013.0
20260507182056 18 236 1.6 4.8 0.00 0.00 0.00 55 1013.1
20260507181556 18 238 1.6 4.8 0.00 0.00 0.00 55 1013.1
20260507181055 18 238 1.6 11.3 0.00 0.00 0.00 57 1013.2
20260507180858 18 237 1.6 11.3 0.00 0.00 0.00 57 1013.2
20260507180058 18 220 1.6 4.8 0.00 0.00 0.00 57 1013.3
20260507175555 17 206 1.6 4.8 0.00 0.00 0.00 58 1013.4
20260507175054 17 206 1.6 4.8 0.00 0.00 0.00 58 1013.5
20260507174854 17 206 1.6 4.8 0.00 0.03 0.00 57 1013.5
20260507174354 17 230 1.6 4.8 0.00 0.05 0.00 59 1013.5
20260507173552 17 230 1.6 6.4 0.00 0.05 0.00 60 1013.5
20260507173051 17 228 1.6 6.4 0.00 0.05 0.00 60 1013.5
20260507172552 16 228 1.6 6.4 0.00 0.05 0.00 61 1013.5
20260507172351 16 213 1.6 6.4 0.00 0.05 0.00 61 1013.6
20260507171548 16 213 1.6 6.4 0.00 0.05 0.00 62 1013.5
20260507171047 16 247 1.6 6.4 0.00 0.05 0.00 64 1013.5
20260507170546 16 247 1.6 6.4 0.00 0.05 0.00 63 1013.6
20260507170043 16 226 1.6 6.4 0.00 0.05 0.00 65 1013.6
20260507165544 16 277 1.6 6.4 0.00 0.05 0.00 65 1013.7
20260507165039 15 280 1.6 4.8 0.00 0.05 0.00 66 1013.8
20260507164539 15 280 1.6 11.3 0.00 0.05 0.00 67 1013.7
20260507164040 15 281 3.2 11.3 0.00 0.05 0.00 66 1013.7
20260507163836 15 287 3.2 6.4 0.00 0.05 0.00 67 1013.7
20260507163037 15 287 3.2 6.4 0.00 0.05 0.00 67 1013.8
20260507162537 15 288 3.2 6.4 0.00 0.05 0.00 68 1013.8
20260507162037 14 291 3.2 6.4 0.00 0.05 0.00 68 1013.7
20260507161832 14 291 3.2 6.4 0.00 0.05 0.00 69 1013.7
20260507161037 14 292 3.2 6.4 0.00 0.05 0.00 69 1013.7
20260507160537 14 292 3.2 11.3 0.00 0.05 0.00 69 1013.8
20260507160038 14 292 1.6 11.3 0.00 0.05 0.00 70 1013.8
20260507155540 14 287 1.6 6.4 0.00 0.05 0.00 70 1013.8
20260507155031 13 289 1.6 6.4 0.00 0.05 0.00 72 1013.7
20260507154831 13 296 0.0 4.8 0.00 0.05 0.00 75 1013.8
20260507154033 13 296 1.6 6.4 0.00 0.05 0.00 75 1013.8
20260507153533 13 295 1.6 6.4 0.00 0.05 0.00 75 1013.9
20260507153034 13 312 1.6 6.4 0.00 0.05 0.00 76 1013.9
20260507152533 12 312 0.0 3.2 0.00 0.05 0.00 76 1014.0
20260507152033 12 312 0.0 4.8 0.00 0.05 0.00 76 1013.9
20260507151531 12 312 0.0 4.8 0.00 0.05 0.00 77 1013.9
20260507151034 12 312 0.0 4.8 0.00 0.05 0.00 77 1013.9
20260507150532 11 312 0.0 4.8 0.00 0.05 0.00 78 1014.0
20260507150032 11 312 0.0 3.2 0.00 0.05 0.00 79 1014.0
20260507145531 11 312 0.0 4.8 0.00 0.05 0.00 80 1014.2
20260507145033 11 312 1.6 4.8 0.00 0.05 0.00 80 1014.2
20260507144532 10 312 0.0 4.8 0.00 0.05 0.00 80 1014.3
20260507144035 10 312 0.0 4.8 0.00 0.05 0.00 80 1014.3
20260507143531 10 312 0.0 3.2 0.00 0.05 0.00 80 1014.2
20260507143031 10 312 0.0 3.2 0.00 0.05 0.00 81 1014.1
20260507142532 10 312 0.0 3.2 0.00 0.05 0.00 81 1013.9
20260507142032 10 312 0.0 3.2 0.00 0.05 0.00 83 1013.7
20260507141531 10 312 0.0 0.0 0.00 0.05 0.00 83 1013.7
20260507141138 10 312 0.0 0.0 0.00 0.05 0.00 83 1013.7
20260507141114 10 312 0.0 0.0 0.00 0.05 0.00 83 1013.7
20260507140032 10 312 0.0 0.0 0.00 0.05 0.00 84 1013.6
20260507135535 10 312 0.0 0.0 0.00 0.05 0.00 84 1013.4
20260507135031 10 312 0.0 0.0 0.00 0.05 0.00 85 1013.3
20260507134533 10 312 0.0 0.0 0.00 0.05 0.00 85 1013.2
20260507134031 10 312 0.0 0.0 0.00 0.05 0.00 85 1013.2
20260507133531 9 312 0.0 0.0 0.00 0.05 0.00 85 1013.0
20260507133032 9 312 0.0 0.0 0.00 0.05 0.00 85 1012.9
20260507132531 9 312 0.0 0.0 0.00 0.05 0.00 85 1012.9
20260507132033 9 312 0.0 0.0 0.00 0.05 0.00 85 1012.8
20260507131532 9 312 0.0 0.0 0.00 0.05 0.00 85 1012.8
20260507131032 9 312 0.0 0.0 0.00 0.05 0.00 85 1012.8
20260507130823 9 312 0.0 0.0 0.00 0.05 0.00 85 1012.8
20260507130033 9 312 0.0 0.0 0.00 0.05 0.00 85 1012.6
20260507125535 9 312 0.0 0.0 0.00 0.05 0.00 85 1012.8
20260507125031 9 312 0.0 0.0 0.00 0.05 0.00 85 1012.8
20260507124532 9 312 0.0 0.0 0.00 0.05 0.00 85 1012.8
20260507124033 9 312 0.0 0.0 0.00 0.05 0.00 84 1012.8
20260507123533 9 312 0.0 0.0 0.00 0.05 0.00 84 1012.8
20260507123032 9 312 0.0 0.0 0.00 0.05 0.00 85 1012.6
20260507122532 9 312 0.0 0.0 0.00 0.05 0.00 84 1012.8
20260507122030 9 312 0.0 1.6 0.00 0.05 0.00 84 1012.8
20260507121530 9 312 0.0 1.6 0.00 0.05 0.00 85 1012.5
20260507121029 9 312 0.0 0.0 0.00 0.05 0.00 84 1012.4
20260507120529 9 312 0.0 0.0 0.00 0.05 0.00 84 1012.4
20260507120031 9 312 0.0 0.0 0.00 0.05 0.00 84 1012.4
20260507115529 9 312 0.0 0.0 0.00 0.05 0.00 84 1012.3
20260507115029 9 312 0.0 0.0 0.00 0.05 0.00 83 1012.2
20260507114836 9 312 0.0 0.0 0.00 0.05 0.00 83 1012.1
20260507114030 9 312 0.0 0.0 0.00 0.05 0.00 83 1012.1
20260507113530 10 312 0.0 0.0 0.00 0.05 0.00 83 1012.0
20260507113030 10 312 0.0 0.0 0.00 0.05 0.00 82 1012.0
20260507112530 10 312 0.0 0.0 0.00 0.05 0.00 81 1012.0
20260507112029 10 312 0.0 1.6 0.00 0.05 0.00 81 1011.9
20260507111531 10 312 0.0 1.6 0.00 0.05 0.00 81 1011.8
20260507111033 10 312 0.0 1.6 0.00 0.05 0.00 81 1011.8
20260507110532 10 312 0.0 4.8 0.00 0.05 0.00 81 1011.7
20260507110029 10 312 0.0 4.8 0.00 0.05 0.00 81 1011.6
20260507105529 10 312 0.0 3.2 0.00 0.05 0.00 81 1011.6
20260507105331 10 312 0.0 0.0 0.00 0.05 0.00 81 1011.6
20260507104639 10 312 0.0 1.6 0.00 0.05 0.00 81 1011.7
20260507104616 10 312 0.0 1.6 0.00 0.05 0.00 81 1011.7
20260507103529 10 312 0.0 0.0 0.00 0.05 0.00 81 1011.7
20260507103031 10 312 0.0 0.0 0.00 0.05 0.00 81 1011.7
20260507102529 10 312 0.0 0.0 0.00 0.05 0.00 81 1011.6
20260507102031 10 312 0.0 0.0 0.00 0.05 0.00 81 1011.5
20260507101543 10 312 0.0 0.0 0.00 0.05 0.00 81 1011.5
20260507101249 10 312 0.0 0.0 0.00 0.05 0.00 80 1011.4
20260507101206 10 312 0.0 0.0 0.00 0.05 0.00 80 1011.4
20260507095830 10 312 0.0 0.0 0.00 0.05 0.00 80 1011.3
20260507095029 10 312 0.0 0.0 0.00 0.05 0.00 80 1011.3
20260507094531 11 312 0.0 0.0 0.00 0.05 0.00 80 1011.2
20260507094031 11 312 0.0 0.0 0.00 0.05 0.00 80 1011.2
20260507093532 11 312 0.0 0.0 0.00 0.05 0.00 80 1011.1
20260507093030 11 312 0.0 0.0 0.00 0.05 0.00 80 1011.1
20260507092530 11 312 0.0 0.0 0.00 0.05 0.00 80 1011.1
20260507092029 11 312 0.0 0.0 0.00 0.05 0.00 80 1010.9
20260507091528 11 312 0.0 0.0 0.00 0.05 0.00 80 1010.9
20260507091031 11 312 0.0 0.0 0.00 0.05 0.00 80 1010.9
20260507090529 11 312 0.0 0.0 0.00 0.05 0.00 79 1010.8
20260507090328 11 312 0.0 1.6 0.00 0.05 0.00 79 1010.9
20260507085530 12 312 0.0 3.2 0.00 0.05 0.00 79 1010.7
20260507085029 12 312 0.0 3.2 0.00 0.05 0.00 78 1010.8
20260507084529 12 312 0.0 6.4 0.00 0.05 0.00 78 1010.7
20260507084032 12 312 0.0 6.4 0.00 0.05 0.00 77 1010.6
20260507083533 12 312 0.0 3.2 0.00 0.05 0.00 75 1010.6
20260507083033 12 312 0.0 3.2 0.00 0.05 0.00 74 1010.6
20260507082533 13 312 0.0 1.6 0.00 0.05 0.00 73 1010.6
20260507082032 13 312 0.0 0.0 0.00 0.05 0.00 71 1010.5
20260507081531 13 312 1.6 12.9 0.00 0.05 0.00 71 1010.5
20260507081029 13 312 3.2 12.9 0.00 0.05 0.00 71 1010.4
20260507080530 13 301 3.2 8.0 0.00 0.05 0.00 71 1010.5
20260507080030 13 291 3.2 6.4 0.00 0.05 0.00 71 1010.5
20260507075536 13 287 3.2 9.7 0.00 0.05 0.00 72 1010.6
20260507075030 12 285 3.2 11.3 0.00 0.05 0.00 74 1010.5
20260507074529 12 303 1.6 11.3 0.00 0.05 0.00 75 1010.5
20260507074029 12 308 1.6 6.4 0.00 0.05 0.00 75 1010.4
20260507073831 12 310 0.0 3.2 0.00 0.05 0.00 75 1010.4
20260507073030 12 309 0.0 8.0 0.00 0.05 0.00 75 1010.5
20260507072530 12 309 0.0 8.0 0.00 0.05 0.00 75 1010.3
20260507072030 12 296 0.0 1.6 0.00 0.05 0.00 75 1010.1
20260507071528 12 296 0.0 1.6 0.00 0.05 0.00 74 1010.2
20260507071030 12 295 0.0 1.6 0.00 0.05 0.00 74 1010.1
20260507070834 12 296 0.0 1.6 0.00 0.05 0.00 74 1010.1
20260507070334 12 296 0.0 1.6 0.00 0.05 0.00 74 1010.0
20260507065529 12 295 0.0 1.6 0.00 0.05 0.05 74 1010.1
20260507065029 13 295 0.0 3.2 0.00 0.05 0.05 74 1010.0
20260507064530 13 296 0.0 3.2 0.00 0.05 0.05 73 1010.0
20260507064032 13 296 0.0 3.2 0.00 0.05 0.05 73 1009.9
20260507063834 13 295 0.0 3.2 0.00 0.05 0.05 73 1009.9
20260507063030 13 297 0.0 0.0 0.00 0.05 0.05 73 1009.9
20260507062528 13 297 0.0 1.6 0.00 0.05 0.05 72 1009.9
20260507062029 13 297 0.0 3.2 0.00 0.05 0.05 72 1009.9
20260507061528 13 297 0.0 3.2 0.00 0.05 0.05 72 1009.8
20260507061145 13 297 0.0 3.2 0.00 0.05 0.05 69 1009.8
20260507061119 13 297 0.0 3.2 0.00 0.05 0.05 71 1009.7
20260507060030 14 297 0.0 3.2 0.00 0.05 0.05 68 1009.8
20260507055530 14 297 0.0 3.2 0.00 0.05 0.05 67 1009.7
20260507055127 15 297 0.0 1.6 0.00 0.05 0.05 64 1009.6
20260507055108 15 297 0.0 1.6 0.00 0.05 0.05 66 1009.7
20260507054033 15 297 0.0 1.6 0.00 0.05 0.05 62 1009.6
20260507053531 15 297 0.0 1.6 0.00 0.05 0.05 61 1009.6
20260507053034 16 297 0.0 1.6 0.00 0.05 0.05 60 1009.6
20260507052533 16 297 0.0 1.6 0.00 0.05 0.05 59 1009.6
20260507052032 16 297 1.6 6.4 0.00 0.05 0.05 59 1009.7
20260507051532 16 297 3.2 11.3 0.00 0.05 0.05 58 1009.7
20260507051032 16 284 4.8 12.9 0.00 0.05 0.05 58 1009.6
20260507050531 16 320 3.2 14.5 0.00 0.05 0.05 57 1009.6
20260507050032 16 285 3.2 14.5 0.00 0.05 0.05 58 1009.6
20260507045534 16 282 4.8 12.9 0.00 0.05 0.05 58 1009.6
20260507045146 16 291 4.8 16.1 0.00 0.05 0.05 61 1009.6
20260507045120 16 272 4.8 16.1 0.00 0.05 0.05 59 1009.6